Wind_Speed
48 43 37 34 30 26 23 23 20 23 20 8 17 17 10 18 9 18 7 3 2 2 5 7 9 17 21 23 22 28 41 44 44 43 39 35 31 33 24 33 35 36 42 27 13 15 13 14 17
51 46 39 36 33 30 26 17 20 14 16 21 22 20 9 6 4 7 13 7 6 4 6 9 16 18 20 24 28 35 36 42 42 44 42 37 38 31 36 31 39 36 26 23 20 17 15 16 19
50 51 42 38 37 35 27 22 16 10 12 14 23 24 16 7 5 8 13 9 7 6 11 17 17 19 21 28 34 35 39 41 43 42 39 40 40 36 37 35 34 34 28 25 20 17 6 13 18
53 53 45 38 37 37 35 35 23 18 11 10 11 12 17 16 8 11 14 19 16 20 24 20 23 22 28 32 35 35 41 45 45 42 43 42 41 35 37 32 31 28 26 19 17 12 13 13 16
54 55 47 44 33 39 33 42 41 25 19 17 17 17 16 18 17 15 18 21 23 25 23 20 20 26 29 31 34 37 38 42 45 43 42 41 38 32 25 24 26 27 20 17 12 11 15 17 18
52 51 49 51 50 31 26 42 40 33 28 24 23 20 17 16 17 18 20 22 21 20 21 21 23 27 31 35 38 41 45 48 51 45 39 41 31 36 20 22 30 32 20 15 11 15 20 19 18
49 53 53 52 50 53 46 37 39 39 36 30 26 28 27 24 22 24 24 24 22 22 23 26 30 32 35 39 42 46 48 49 44 34 38 35 34 24 16 26 26 25 15 13 18 17 15 13 21
50 51 51 47 48 47 49 42 44 42 37 36 34 32 32 33 32 29 27 27 28 26 27 30 35 38 40 45 49 45 46 46 37 33 35 26 28 21 27 32 24 23 7 8 12 11 15 12 15
51 49 49 49 37 43 50 47 46 44 44 40 41 41 40 37 35 33 33 31 32 31 33 37 40 42 46 47 46 42 39 33 30 28 28 34 29 22 24 19 12 3 7 12 11 12 11 12 11
45 49 50 51 52 45 45 46 45 45 46 44 42 41 41 40 39 38 36 34 37 38 40 43 46 46 48 43 41 38 29 26 27 23 31 30 25 23 11 7 5 5 10 11 10 10 12 10 10
43 47 46 49 50 47 45 43 42 42 43 42 43 42 41 40 41 42 40 40 42 43 45 49 49 45 42 40 38 31 26 22 19 23 20 21 19 16 14 6 6 10 11 14 13 18 13 12 14
35 38 40 42 44 43 43 42 41 41 40 39 38 40 38 39 41 40 39 39 42 43 45 45 41 37 35 31 25 20 17 10 14 16 14 21 18 13 6 8 5 8 11 15 19 18 14 11 9
25 24 33 35 39 40 41 40 39 39 38 36 35 37 37 37 37 39 39 40 41 40 36 31 29 24 20 18 13 10 7 7 11 14 12 18 23 18 11 10 7 7 8 13 12 15 16 11 8
20 21 22 26 28 31 33 35 36 36 35 33 33 34 32 33 32 31 32 32 29 25 21 17 13 8 5 5 7 6 7 9 5 17 16 18 18 17 9 5 3 6 10 11 19 23 24 21 18
20 19 21 25 26 28 28 28 27 27 27 27 24 24 22 23 25 26 23 20 16 14 5 2 9 19 21 21 21 18 14 8 7 12 18 16 16 12 12 13 16 16 15 16 23 26 27 26 23
21 21 20 23 23 26 26 28 31 31 29 27 24 23 23 19 14 10 10 11 6 7 20 20 20 17 16 14 11 14 12 8 9 13 15 16 16 15 13 12 14 17 20 22 23 24 25 25 27
23 19 16 18 16 17 19 21 22 22 23 23 21 17 10 6 3 4 6 14 21 30 22 18 17 17 16 11 12 12 13 15 16 16 17 16 17 18 19 20 19 22 24 22 19 25 31 32 35
20 20 17 21 16 12 11 14 16 15 16 17 13 9 10 11 12 22 25 28 28 22 17 14 16 15 14 12 15 17 17 17 18 18 17 19 23 26 24 22 20 25 29 28 19 26 32 42 44
25 17 19 14 17 15 10 12 13 13 13 14 20 25 27 29 26 26 24 24 23 18 15 13 13 15 16 19 18 17 16 16 16 18 21 23 25 25 26 29 30 20 23 20 25 34 37 36 41
20 25 15 12 11 14 15 12 19 19 22 32 36 37 34 30 29 25 26 22 17 16 15 14 18 18 18 16 16 15 16 18 20 22 24 26 27 27 29 31 16 26 37 31 34 39 41 34 41
20 22 18 15 15 17 20 21 28 31 31 35 36 32 31 26 22 19 18 15 14 11 15 17 14 15 15 16 18 19 19 19 21 25 28 30 29 30 31 30 18 34 35 37 38 42 43 46 47
23 17 16 16 19 21 25 32 36 41 35 31 29 29 28 22 22 19 13 11 12 12 14 12 11 12 13 15 18 20 23 25 26 28 30 31 30 32 34 36 36 37 38 46 53 50 47 41 41
28 27 28 22 27 31 33 36 37 39 35 30 24 26 23 22 21 20 18 18 17 13 12 11 12 14 15 16 22 23 24 25 27 31 34 33 36 41 45 46 48 47 54 59 57 55 49 45 45
25 26 28 32 31 35 32 32 33 33 29 30 22 25 24 24 26 21 16 15 13 11 12 12 13 15 18 21 23 25 28 32 35 38 42 45 48 51 51 55 56 56 63 64 57 52 48 42 42
25 26 30 34 34 37 39 35 33 33 30 28 25 23 26 23 22 18 14 12 11 11 12 13 13 16 20 23 26 30 35 38 42 45 48 52 55 56 58 61 62 66 69 63 54 45 36 38 34
28 31 35 42 41 37 39 40 36 33 31 31 29 24 20 18 15 15 12 10 8 7 9 11 12 16 21 26 31 36 39 43 47 50 52 55 59 61 63 66 67 72 71 60 50 43 39 36 34
34 33 32 35 33 33 34 38 34 31 29 30 29 27 23 18 14 11 7 4 4 5 9 12 15 20 25 31 35 39 42 45 49 53 56 59 63 65 68 69 73 76 67 57 47 40 38 34 38
37 39 35 36 37 35 33 31 31 31 29 26 24 22 19 19 14 10 6 1 3 6 10 13 18 23 27 32 36 41 44 47 51 56 59 63 65 68 71 73 77 77 64 56 47 40 36 35 43
43 38 39 38 37 33 32 31 31 28 25 23 22 20 18 15 12 10 6 4 7 9 13 17 20 25 30 35 39 43 47 50 54 59 63 66 70 73 75 77 82 75 62 53 43 41 34 42 45
46 45 41 38 38 38 36 32 30 26 24 21 21 19 17 14 10 10 7 7 11 13 15 18 22 28 33 37 42 45 49 52 57 62 65 69 73 76 78 82 83 67 59 48 44 33 40 41 49
Wind_Direction
195 195 198 199 198 189 193 203 214 224 225 230 221 200 248 153 182 222 185 135 104 58 344 237 277 292 300 303 307 316 323 329 333 336 339 337 344 340 339 332 340 335 339 339 326 360 14 352 3
192 196 199 200 199 182 175 163 182 218 230 230 228 230 232 251 228 208 194 144 118 77 213 262 289 298 305 313 315 318 317 323 326 331 332 341 340 339 333 329 341 343 352 344 334 340 338 327 340
194 196 202 197 203 192 187 172 184 207 239 213 226 239 232 256 218 184 191 193 188 195 278 283 271 277 293 307 312 316 318 322 323 326 330 334 340 339 345 337 339 348 345 349 340 348 358 339 351
193 194 197 201 210 207 202 218 194 207 235 247 238 244 240 241 257 233 237 242 246 278 291 289 302 289 299 307 315 313 316 319 318 323 327 332 331 339 342 333 339 342 352 354 350 349 346 347 358
195 196 196 192 193 210 218 212 216 226 239 254 248 255 254 258 253 257 253 250 263 273 291 307 303 310 303 313 315 315 313 315 319 321 330 330 335 334 329 323 353 357 3 1 339 349 348 344 345
199 203 201 202 203 194 197 211 215 225 236 247 248 247 246 248 254 261 262 259 268 281 293 296 308 311 316 316 314 312 309 311 312 324 328 333 334 324 347 351 349 349 346 346 356 358 356 346 351
203 207 208 210 215 220 222 211 216 223 229 243 249 254 254 253 255 268 270 276 279 283 291 299 309 313 313 310 309 312 314 314 316 322 327 330 322 330 343 332 336 347 354 351 340 358 342 348 359
206 209 214 217 221 224 228 231 236 234 245 248 250 251 255 263 269 271 272 275 283 286 293 302 306 309 308 309 311 314 313 310 319 317 321 324 310 304 307 306 305 325 10 337 353 352 357 340 347
207 212 217 216 219 230 229 230 234 240 244 246 251 254 255 261 267 272 278 282 284 289 294 301 302 304 306 310 310 309 309 314 321 324 326 329 321 304 316 331 324 262 6 349 351 352 346 325 343
211 214 221 224 231 234 233 235 237 239 245 247 250 255 258 261 265 269 271 279 286 290 294 295 298 301 305 308 306 308 311 307 321 318 320 325 329 320 331 4 28 224 335 342 338 359 345 7 334
212 214 220 226 230 232 231 235 242 245 246 248 250 253 257 263 267 270 273 277 282 284 289 290 294 300 301 301 305 309 309 313 324 336 332 344 337 328 326 31 74 43 353 344 334 336 335 320 308
203 211 217 224 231 234 235 238 242 245 248 252 253 253 257 261 265 269 275 278 281 285 288 292 297 299 302 306 309 313 311 324 335 333 344 359 16 28 20 33 46 35 348 326 340 331 330 346 321
206 216 219 222 227 229 233 235 240 245 248 250 250 252 260 264 267 269 271 276 279 285 292 296 298 300 302 298 302 304 322 334 348 340 9 20 31 41 28 35 5 356 335 326 333 335 334 321 293
211 217 214 221 225 230 235 238 240 241 242 246 251 255 260 264 269 272 275 277 282 287 294 297 299 304 318 357 21 30 52 59 355 12 14 17 31 37 45 29 13 332 341 315 338 327 333 332 315
228 231 231 229 228 227 224 229 237 242 245 247 248 253 254 258 264 271 272 274 281 286 298 132 91 87 80 66 59 61 54 52 25 17 17 16 22 24 20 18 1 348 329 301 316 321 327 332 329
226 235 235 236 232 233 231 232 233 236 238 239 240 244 252 257 262 269 280 278 253 128 121 109 92 75 60 60 55 45 46 35 28 20 24 18 17 18 13 357 338 338 329 323 320 318 319 318 313
227 222 223 223 217 220 224 224 227 230 233 240 241 247 246 247 247 223 142 133 126 123 118 90 64 44 34 39 47 45 36 35 31 30 27 17 15 10 3 358 359 357 344 319 321 337 336 333 326
202 201 194 225 206 201 202 202 198 211 219 225 210 197 162 139 134 126 119 117 122 118 91 75 68 48 45 45 39 39 37 37 28 19 9 2 2 3 355 349 344 349 339 329 309 325 321 324 320
191 175 187 187 191 162 158 184 170 186 185 180 150 134 124 120 113 115 116 123 116 101 85 49 40 45 48 48 39 32 23 22 19 8 2 359 359 353 352 347 344 337 337 338 321 311 310 314 308
177 185 156 187 151 149 149 186 152 156 142 140 127 122 120 120 120 125 126 121 106 81 61 50 64 59 50 40 34 28 25 16 8 1 358 357 354 356 358 353 5 353 340 327 313 305 310 299 304
185 158 152 154 157 151 153 152 141 133 138 132 125 123 115 111 110 114 122 103 84 77 55 72 66 58 48 35 27 26 18 10 5 1 358 356 356 356 355 356 347 333 329 328 322 318 308 300 293
209 158 156 143 148 147 147 142 138 130 132 133 129 128 119 112 102 100 111 95 91 77 84 74 56 46 38 27 22 21 13 5 2 0 356 355 352 352 355 354 346 339 332 328 325 323 321 309 303
199 167 158 147 146 142 136 133 133 131 135 137 147 137 124 122 112 106 107 104 95 84 74 58 41 29 21 14 17 20 10 2 4 4 359 354 355 355 355 353 347 343 338 334 337 334 333 322 316
188 179 166 147 156 145 139 137 143 143 147 146 150 138 135 124 116 113 107 98 89 75 56 39 26 16 11 11 12 11 8 6 6 4 360 357 358 357 354 352 345 341 339 341 338 334 325 321 319
186 192 173 161 171 155 149 145 147 145 143 143 143 145 133 127 124 123 119 107 84 61 43 31 16 6 2 360 1 5 3 2 2 1 359 355 355 355 352 350 344 343 341 340 339 333 327 330 335
176 192 176 174 171 162 153 154 152 153 153 143 141 139 133 133 135 133 125 105 84 47 29 25 12 358 353 352 356 359 359 358 357 357 356 353 354 352 350 348 343 342 340 341 336 334 333 335 339
173 182 181 171 164 167 161 159 164 162 160 153 148 150 150 149 148 137 117 93 51 15 10 6 353 350 347 347 351 351 354 353 352 352 353 352 352 350 347 345 344 340 341 341 337 332 333 337 342
171 189 181 168 168 167 164 160 159 161 159 156 156 159 161 161 161 154 155 200 315 333 345 350 347 345 342 343 346 347 347 348 349 349 350 350 350 347 346 344 342 340 341 339 337 335 337 338 346
177 190 178 176 170 170 168 169 166 169 170 167 171 172 174 181 183 187 202 252 291 317 334 340 338 335 335 337 341 342 343 345 346 347 347 349 348 347 344 343 342 342 339 341 340 337 336 344 345
190 188 184 182 180 173 176 180 176 179 179 183 187 193 192 201 220 235 234 264 293 311 322 325 328 329 329 332 335 338 340 343 343 345 347 347 346 345 343 343 342 341 340 342 340 341 345 344 350
Height
11010 11014 11017 11021 11025 11026 11029 11033 11033 11030 11033 11034 11037 11041 11042 11044 11046 11047 11049 11048 11048 11048 11048 11047 11047 11046 11044 11042 11040 11037 11032 11028 11025 11022 11018 11015 11011 11008 11003 10999 10995 10990 10986 10982 10979 10977 10975 10970 10967
11011 11012 11015 11022 11026 11028 11029 11030 11030 11032 11033 11035 11036 11040 11042 11044 11045 11047 11047 11048 11048 11048 11047 11048 11047 11045 11043 11041 11039 11035 11031 11027 11025 11021 11017 11013 11010 11007 11003 10998 10993 10989 10984 10981 10978 10976 10974 10970 10968
11009 11012 11016 11018 11022 11026 11027 11030 11032 11033 11032 11033 11037 11038 11041 11044 11045 11046 11048 11048 11048 11048 11047 11047 11044 11043 11042 11040 11037 11032 11029 11026 11022 11018 11014 11011 11007 11004 11000 10995 10991 10988 10983 10981 10978 10974 10972 10970 10968
11006 11009 11013 11015 11019 11020 11024 11027 11029 11031 11032 11033 11035 11038 11041 11044 11045 11046 11047 11047 11048 11047 11047 11046 11045 11042 11041 11038 11035 11031 11028 11023 11019 11014 11011 11008 11003 10999 10995 10993 10990 10986 10981 10978 10976 10972 10971 10969 10968
11004 11008 11013 11015 11014 11018 11022 11024 11027 11028 11030 11032 11035 11036 11039 11042 11043 11045 11046 11045 11046 11046 11046 11045 11044 11042 11039 11035 11032 11028 11025 11020 11015 11011 11008 11004 11000 10997 10993 10992 10990 10985 10980 10978 10975 10971 10970 10968 10967
11002 11006 11010 11012 11012 11016 11020 11024 11024 11027 11029 11031 11034 11035 11037 11040 11041 11042 11044 11045 11045 11045 11044 11043 11043 11040 11036 11033 11028 11024 11020 11017 11013 11009 11006 11001 10997 10993 10991 10990 10988 10986 10980 10978 10978 10973 10971 10968 10966
11000 11004 11007 11010 11011 11015 11017 11022 11022 11025 11028 11030 11032 11034 11035 11037 11039 11039 11040 11041 11042 11042 11041 11040 11039 11036 11034 11030 11026 11022 11018 11014 11009 11006 11002 10999 10994 10992 10991 10989 10986 10985 10980 10978 10976 10975 10971 10968 10965
10993 10999 11003 11007 11009 11011 11014 11018 11019 11022 11024 11027 11029 11032 11034 11034 11035 11036 11038 11038 11038 11038 11037 11036 11034 11033 11030 11025 11020 11017 11014 11009 11006 11002 11000 10997 10992 10990 10987 10985 10985 10983 10978 10975 10974 10973 10971 10968 10965
10991 10997 11000 11005 11005 11007 11011 11015 11018 11019 11022 11025 11026 11028 11031 11032 11032 11033 11034 11035 11034 11035 11033 11032 11030 11028 11025 11020 11017 11013 11010 11007 11003 11001 10998 10994 10988 10986 10985 10982 10978 10978 10976 10973 10970 10969 10968 10966 10965
10991 10995 10997 11001 11002 11005 11009 11012 11016 11017 11019 11022 11024 11025 11027 11028 11030 11030 11032 11032 11031 11031 11030 11028 11026 11024 11020 11016 11012 11010 11009 11004 11001 11000 10995 10991 10986 10982 10980 10977 10975 10976 10976 10974 10972 10968 10965 10964 10964
10988 10992 10994 10995 10998 11001 11004 11008 11009 11012 11016 11018 11020 11021 11023 11025 11026 11027 11028 11029 11028 11026 11026 11023 11022 11020 11016 11012 11008 11007 11004 11002 11000 10999 10994 10988 10984 10978 10975 10975 10975 10975 10975 10973 10970 10969 10964 10963 10962
10983 10987 10991 10994 10995 10996 10999 11003 11006 11008 11010 11013 11015 11017 11020 11021 11021 11023 11023 11023 11022 11021 11021 11019 11017 11016 11012 11006 11004 11002 11000 10999 10999 10998 10994 10989 10984 10979 10976 10976 10977 10977 10975 10971 10968 10966 10962 10960 10960
10983 10985 10987 10990 10991 10993 10996 10998 11002 11004 11007 11009 11011 11013 11016 11018 11019 11019 11018 11018 11019 11019 11019 11017 11013 11011 11007 11003 11001 10999 10997 10999 10999 10997 10994 10991 10985 10979 10978 10980 10979 10976 10974 10971 10969 10966 10962 10958 10957
10980 10981 10983 10985 10986 10989 10991 10993 10996 10998 11002 11005 11007 11009 11012 11015 11016 11015 11015 11016 11017 11016 11015 11012 11009 11008 11004 11002 11000 10999 10999 11000 11000 10995 10992 10991 10989 10987 10981 10980 10979 10975 10972 10969 10965 10962 10960 10956 10955
10975 10977 10980 10982 10983 10985 10987 10989 10991 10993 10996 10999 11003 11006 11009 11011 11012 11012 11013 11013 11013 11011 11011 11009 11008 11008 11006 11003 11001 11001 11001 11001 10999 10997 10993 10992 10990 10988 10985 10981 10976 10975 10972 10967 10963 10958 10956 10953 10951
10972 10974 10975 10978 10981 10981 10983 10984 10986 10989 10992 10995 11000 11003 11006 11008 11010 11010 11009 11009 11009 11009 11010 11011 11009 11009 11008 11007 11006 11004 11004 11003 11001 10997 10995 10993 10991 10988 10986 10982 10978 10974 10969 10965 10962 10958 10955 10952 10950
10971 10973 10974 10973 10974 10975 10975 10978 10981 10984 10987 10991 10996 10999 11003 11005 11007 11008 11008 11007 11008 11011 11013 11012 11011 11010 11009 11009 11007 11007 11006 11003 11000 10999 10997 10994 10989 10986 10985 10982 10980 10976 10971 10965 10960 10956 10952 10949 10945
10969 10971 10971 10970 10971 10972 10972 10973 10976 10980 10984 10989 10994 10998 11001 11004 11007 11009 11010 11010 11011 11013 11014 11015 11013 11013 11012 11010 11010 11008 11006 11005 11002 10999 10995 10991 10988 10984 10981 10977 10973 10969 10964 10959 10955 10950 10946 10941 10935
10966 10968 10968 10968 10969 10969 10972 10974 10973 10979 10983 10989 10992 10997 11000 11005 11008 11011 11012 11013 11015 11017 11017 11016 11016 11015 11014 11013 11013 11011 11008 11006 11003 11000 10995 10990 10987 10983 10978 10973 10968 10963 10958 10954 10951 10945 10940 10933 10929
10965 10966 10965 10966 10968 10969 10970 10978 10973 10979 10985 10992 10993 10997 11002 11007 11010 11014 11015 11017 11018 11019 11018 11018 11017 11017 11016 11017 11016 11013 11010 11007 11003 10998 10995 10990 10985 10981 10977 10970 10965 10961 10956 10951 10945 10938 10932 10923 10916
10968 10965 10964 10966 10968 10969 10972 10978 10980 10981 10990 10996 10995 11001 11004 11009 11013 11016 11018 11020 11020 11020 11020 11020 11021 11020 11019 11018 11017 11014 11009 11006 11002 10997 10993 10989 10983 10981 10974 10968 10964 10958 10952 10945 10939 10931 10922 10913 10906
10967 10966 10967 10967 10969 10972 10975 10977 10981 10981 10992 10999 11000 11003 11006 11011 11013 11016 11020 11020 11021 11021 11022 11022 11023 11022 11020 11019 11017 11014 11009 11005 11001 10997 10992 10988 10984 10977 10971 10965 10959 10953 10946 10936 10927 10917 10907 10895 10888
10963 10965 10966 10972 10974 10975 10979 10982 10984 10985 10994 11001 11003 11004 11008 11012 11014 11018 11022 11022 11022 11023 11024 11024 11023 11021 11019 11018 11015 11012 11009 11006 11001 10996 10991 10985 10979 10971 10964 10958 10951 10943 10933 10924 10910 10900 10891 10884 10877
10961 10966 10970 10968 10980 10979 10981 10984 10987 10991 10996 10998 11007 11005 11009 11013 11015 11020 11023 11023 11024 11025 11023 11022 11021 11019 11018 11016 11014 11011 11007 11002 10997 10992 10986 10978 10973 10966 10958 10951 10942 10933 10922 10910 10901 10890 10883 10875 10868
10962 10970 10971 10969 10980 10980 10979 10983 10991 10994 10997 11000 11004 11009 11009 11013 11015 11019 11022 11024 11025 11025 11023 11022 11021 11019 11017 11015 11012 11008 11004 10998 10993 10989 10982 10974 10967 10960 10951 10943 10934 10924 10913 10901 10891 10883 10875 10869 10862
10961 10970 10970 10968 10976 10978 10977 10982 10988 10992 10996 10998 11001 11006 11010 11013 11017 11019 11022 11023 11024 11025 11024 11023 11021 11019 11015 11013 11009 11004 11000 10995 10989 10984 10978 10971 10962 10954 10945 10937 10926 10915 10904 10893 10882 10874 10867 10861 10855
10956 10966 10970 10971 10977 10980 10980 10981 10987 10991 10995 10998 11000 11003 11007 11012 11016 11018 11020 11021 11022 11023 11023 11022 11020 11017 11014 11010 11005 11001 10997 10992 10986 10979 10972 10965 10956 10947 10938 10928 10917 10907 10895 10883 10875 10866 10859 10853 10846
10951 10963 10970 10971 10974 10978 10982 10985 10987 10992 10996 10998 11001 11004 11008 11010 11014 11016 11019 11020 11021 11021 11021 11020 11017 11015 11011 11007 11003 10998 10993 10988 10982 10974 10966 10958 10950 10940 10930 10919 10909 10896 10883 10874 10865 10857 10851 10845 10837
10945 10958 10965 10967 10970 10976 10981 10984 10987 10993 10996 10998 11002 11003 11006 11010 11011 11014 11016 11017 11017 11018 11017 11015 11014 11012 11008 11004 11000 10995 10990 10984 10976 10967 10959 10951 10941 10931 10922 10912 10899 10884 10873 10865 10858 10851 10844 10837 10828
10941 10945 10958 10964 10967 10971 10976 10982 10987 10993 10995 10998 11000 11003 11005 11009 11011 11012 11012 11013 11013 11013 11014 11013 11010 11007 11004 11000 10996 10991 10984 10977 10970 10961 10952 10943 10932 10922 10912 10899 10887 10875 10867 10858 10850 10843 10837 10829 10820